Tiempo cada hora Alingsas

Hoy, 2 Agosto, Lunes

Tiempo Temperatura Precipitaciones Viento Presión Humedad
00:00 +11°C° 0 mm 1 mps 742 mmHg 95%
01:00 +10°C° 0 mm 1 mps 742 mmHg 97%
02:00 +10°C° 0 mm 1 mps 742 mmHg 97%
03:00 +10°C° 0 mm 1 mps 742 mmHg 97%
04:00 +10°C° 0 mm 1 mps 742 mmHg 98%
05:00 +11°C° 0.1 mm 1 mps 743 mmHg 95%
06:00 +12°C° 0.1 mm 2 mps 743 mmHg 93%
07:00 +13°C° 0.1 mm 2 mps 743 mmHg 91%
08:00 +12°C° 0.1 mm 3 mps 744 mmHg 89%
09:00 +13°C° 0.1 mm 3 mps 744 mmHg 88%
10:00 +13°C° 0.1 mm 3 mps 744 mmHg 86%
11:00 +14°C° 0.2 mm 4 mps 745 mmHg 79%
12:00 +15°C° 0.2 mm 4 mps 745 mmHg 72%
13:00 +18°C° 0.2 mm 4 mps 746 mmHg 65%
14:00 +18°C° 0 mm 4 mps 746 mmHg 59%
15:00 +19°C° 0 mm 3 mps 746 mmHg 53%
16:00 +19°C° 0 mm 3 mps 746 mmHg 46%
17:00 +19°C° 0 mm 2 mps 746 mmHg 51%
18:00 +18°C° 0 mm 2 mps 747 mmHg 55%
19:00 +17°C° 0 mm 2 mps 747 mmHg 60%
20:00 +15°C° 0 mm 1 mps 747 mmHg 67%
21:00 +13°C° 0 mm 1 mps 747 mmHg 74%
22:00 +11°C° 0 mm 1 mps 748 mmHg 81%
23:00 +11°C° 0 mm 1 mps 748 mmHg 82%

Mañana, 3 Agosto, Martes

Tiempo Temperatura Precipitaciones Viento Presión Humedad
00:00 +11°C° 0 mm 1 mps 748 mmHg 83%
01:00 +10°C° 0 mm 1 mps 748 mmHg 85%
02:00 +10°C° 0 mm 1 mps 748 mmHg 86%
03:00 +10°C° 0 mm 1 mps 748 mmHg 87%
04:00 +10°C° 0 mm 1 mps 748 mmHg 88%
05:00 +12°C° 0 mm 1 mps 748 mmHg 84%
06:00 +13°C° 0 mm 1 mps 749 mmHg 81%
07:00 +15°C° 0 mm 1 mps 749 mmHg 77%
08:00 +16°C° 0.1 mm 1 mps 749 mmHg 72%
09:00 +17°C° 0.1 mm 2 mps 749 mmHg 67%
10:00 +19°C° 0.1 mm 2 mps 749 mmHg 62%
11:00 +19°C° 0.3 mm 2 mps 749 mmHg 62%
12:00 +19°C° 0.3 mm 2 mps 749 mmHg 61%
13:00 +19°C° 0.3 mm 2 mps 749 mmHg 61%
14:00 +19°C° 0.2 mm 2 mps 749 mmHg 57%
15:00 +20°C° 0.2 mm 2 mps 749 mmHg 54%
16:00 +20°C° 0.2 mm 3 mps 749 mmHg 51%
17:00 +19°C° 0.1 mm 2 mps 749 mmHg 56%
18:00 +18°C° 0.1 mm 2 mps 749 mmHg 61%
19:00 +18°C° 0.1 mm 1 mps 750 mmHg 66%
20:00 +16°C° 0 mm 1 mps 750 mmHg 75%
21:00 +14°C° 0 mm 1 mps 750 mmHg 83%
22:00 +12°C° 0 mm 1 mps 750 mmHg 92%
23:00 +12°C° 0 mm 1 mps 751 mmHg 93%

Pasado mañana, 4 Agosto, Miércoles

Tiempo Temperatura Precipitaciones Viento Presión Humedad
00:00 +12°C° 0 mm 1 mps 751 mmHg 95%
01:00 +11°C° 0 mm 1 mps 751 mmHg 97%
02:00 +12°C° 0 mm 1 mps 751 mmHg 97%
03:00 +12°C° 0 mm 1 mps 751 mmHg 96%
04:00 +12°C° 0 mm 1 mps 751 mmHg 96%
05:00 +13°C° 0 mm 1 mps 751 mmHg 92%
06:00 +14°C° 0 mm 1 mps 751 mmHg 88%
07:00 +16°C° 0 mm 1 mps 751 mmHg 84%
08:00 +18°C° 0.1 mm 1 mps 751 mmHg 76%
09:00 +18°C° 0.1 mm 2 mps 752 mmHg 69%
10:00 +19°C° 0.1 mm 2 mps 752 mmHg 61%
11:00 +19°C° 0.1 mm 2 mps 752 mmHg 61%
12:00 +19°C° 0.1 mm 2 mps 752 mmHg 61%
13:00 +19°C° 0.1 mm 3 mps 752 mmHg 61%
14:00 +20°C° 0 mm 3 mps 752 mmHg 58%
15:00 +20°C° 0 mm 2 mps 752 mmHg 54%
16:00 +20°C° 0 mm 2 mps 752 mmHg 51%
17:00 +19°C° 0 mm 2 mps 752 mmHg 56%
18:00 +19°C° 0 mm 2 mps 752 mmHg 61%
19:00 +18°C° 0 mm 2 mps 752 mmHg 66%
20:00 +16°C° 0 mm 1 mps 752 mmHg 75%
21:00 +14°C° 0 mm 1 mps 752 mmHg 84%
22:00 +12°C° 0 mm 1 mps 753 mmHg 93%
23:00 +12°C° 0 mm 1 mps 753 mmHg 94%

5 Agosto, Jueves

Tiempo Temperatura Precipitaciones Viento Presión Humedad
00:00 +12°C° 0 mm 1 mps 753 mmHg 94%
01:00 +10°C° 0 mm 0 mps 753 mmHg 95%
02:00 +10°C° 0 mm 0 mps 752 mmHg 95%
03:00 +10°C° 0 mm 0 mps 752 mmHg 95%
04:00 +10°C° 0 mm 0 mps 752 mmHg 95%
05:00 +11°C° 0 mm 0 mps 752 mmHg 89%
06:00 +13°C° 0 mm 0 mps 752 mmHg 82%
07:00 +15°C° 0 mm 0 mps 752 mmHg 75%
08:00 +18°C° 0 mm 1 mps 752 mmHg 67%
09:00 +20°C° 0 mm 1 mps 752 mmHg 58%
10:00 +22°C° 0 mm 1 mps 752 mmHg 49%
11:00 +23°C° 0 mm 1 mps 751 mmHg 44%
12:00 +24°C° 0 mm 1 mps 751 mmHg 40%
13:00 +25°C° 0 mm 1 mps 751 mmHg 35%
14:00 +25°C° 0 mm 2 mps 750 mmHg 36%
15:00 +25°C° 0 mm 2 mps 750 mmHg 36%
16:00 +25°C° 0 mm 2 mps 749 mmHg 37%
17:00 +23°C° 0 mm 2 mps 749 mmHg 46%
18:00 +21°C° 0 mm 2 mps 749 mmHg 55%
19:00 +19°C° 0 mm 2 mps 749 mmHg 65%
20:00 +18°C° 0 mm 2 mps 749 mmHg 69%
21:00 +17°C° 0 mm 2 mps 749 mmHg 73%
22:00 +15°C° 0 mm 2 mps 749 mmHg 78%
23:00 +15°C° 0 mm 2 mps 749 mmHg 79%

6 Agosto, Viernes

Tiempo Temperatura Precipitaciones Viento Presión Humedad
00:00 +15°C° 0 mm 2 mps 749 mmHg 81%
01:00 +15°C° 0 mm 2 mps 749 mmHg 83%
02:00 +15°C° 0.1 mm 2 mps 749 mmHg 86%
03:00 +15°C° 0.1 mm 2 mps 748 mmHg 90%
04:00 +14°C° 0.1 mm 3 mps 748 mmHg 94%
05:00 +14°C° 0.3 mm 3 mps 748 mmHg 93%
06:00 +16°C° 0.3 mm 3 mps 748 mmHg 93%
07:00 +16°C° 0.3 mm 3 mps 748 mmHg 92%
08:00 +18°C° 0.1 mm 3 mps 747 mmHg 84%
09:00 +19°C° 0.1 mm 3 mps 747 mmHg 76%
10:00 +21°C° 0.1 mm 3 mps 747 mmHg 68%
11:00 +21°C° 0.8 mm 3 mps 747 mmHg 72%
12:00 +21°C° 0.8 mm 3 mps 747 mmHg 75%
13:00 +21°C° 0.8 mm 2 mps 746 mmHg 79%
14:00 +21°C° 1.1 mm 2 mps 746 mmHg 80%
15:00 +21°C° 1.1 mm 2 mps 746 mmHg 80%
16:00 +21°C° 1.1 mm 2 mps 746 mmHg 80%
17:00 +20°C° 0.3 mm 2 mps 746 mmHg 82%
18:00 +21°C° 0.3 mm 1 mps 746 mmHg 83%
19:00 +20°C° 0.3 mm 1 mps 746 mmHg 84%
20:00 +19°C° 0 mm 1 mps 746 mmHg 86%
21:00 +16°C° 0 mm 1 mps 746 mmHg 88%
22:00 +15°C° 0 mm 1 mps 747 mmHg 90%
23:00 +15°C° 0.1 mm 1 mps 747 mmHg 92%

7 Agosto, Sábado

Tiempo Temperatura Precipitaciones Viento Presión Humedad
00:00 +15°C° 0.1 mm 1 mps 747 mmHg 94%
01:00 +15°C° 0.1 mm 1 mps 747 mmHg 96%
02:00 +14°C° 0.1 mm 1 mps 747 mmHg 96%
03:00 +14°C° 0.1 mm 1 mps 747 mmHg 97%
04:00 +14°C° 0.1 mm 1 mps 747 mmHg 97%
05:00 +15°C° 0.1 mm 1 mps 747 mmHg 95%
06:00 +16°C° 0.1 mm 1 mps 747 mmHg 93%
07:00 +18°C° 0.1 mm 1 mps 748 mmHg 90%
08:00 +18°C° 0.4 mm 2 mps 748 mmHg 85%
09:00 +19°C° 0.4 mm 2 mps 748 mmHg 80%
10:00 +21°C° 0.4 mm 2 mps 748 mmHg 75%
11:00 +21°C° 0.7 mm 2 mps 748 mmHg 75%
12:00 +21°C° 0.7 mm 2 mps 748 mmHg 75%
13:00 +21°C° 0.7 mm 2 mps 748 mmHg 75%
14:00 +21°C° 0.2 mm 3 mps 748 mmHg 68%
15:00 +22°C° 0.2 mm 3 mps 748 mmHg 61%
16:00 +22°C° 0.2 mm 3 mps 748 mmHg 54%
17:00 +21°C° 0 mm 2 mps 748 mmHg 60%
18:00 +20°C° 0 mm 2 mps 748 mmHg 65%
19:00 +20°C° 0 mm 1 mps 748 mmHg 71%
20:00 +19°C° 0 mm 1 mps 748 mmHg 74%
21:00 +18°C° 0 mm 1 mps 749 mmHg 78%
22:00 +16°C° 0 mm 1 mps 749 mmHg 81%
23:00 +16°C° 0 mm 1 mps 749 mmHg 83%
Mostrar más

Necesitamos Su Consentimiento

Meteoprog y nuestros Proveedores de Servicios pueden almacenar y acceder a sus datos personales como cookies, identificadores de dispositivo u otras tecnologías similares de su dispositivo y procesar dichos datos para personalizar contenido y anuncios, además de ofrecer funciones de redes sociales y analizar el tráfico.

  • Almacenar y/o acceder a información en su dispositivo

    Se puede almacenar o acceder a cookies, identificadores de dispositivo u otra información de su dispositivo para los fines anteriormente indicados.

  • Anuncios y contenido personalizados, medición de anuncios y contenido, percepciones del público, y desarrollo de productos

    Los anuncios y el contenido pueden personalizarse en base a su perfil. Se pueden añadir más datos para personalizar mejor los anuncios y contenidos. Se puede medir el rendimiento de los anuncios y contenidos. Se puede obtener la percepción sobre el público que ha visto los anuncios y contenidos. Dichos datos pueden usarse para desarrollar o mejorar la experiencia del usuario, sistemas y software.

Al hacer clic en ‘Estoy De Acuerdo’ usted permitirá el uso de las cookies, identificadores de dispositivo, balizas web u otras tecnologías similares indicadas. Su configuración puede cambiarse desde el navegador de su dispositivo.

Para ciertos fines, los intereses legítimos pueden ser considerados por encima del consentimiento. Puede leer más sobre ello en nuestra Política de Privacidad y Cookies.